Time,TemperatureF,DewpointF,PressureIn,WindDirection,WindDirectionDegrees,WindSpeedMPH,WindSpeedGustMPH,Humidity,HourlyPrecipIn,Conditions,Clouds,dailyrainin,SolarRadiationWatts/m^2,SoftwareType,DateUTC
2013-01-08 00:00:00,37.0,27.8,30.23,North,350,1.0,6.0,69,0.00,,,0.00,0,WeatherCatV1.12B45,2013-01-08 05:00:00,
2013-01-08 00:05:00,36.8,27.6,30.23,ESE,109,2.0,4.0,69,0.00,,,0.00,0,WeatherCatV1.12B45,2013-01-08 05:05:00,
2013-01-08 00:10:00,36.8,27.6,30.23,ESE,109,2.0,2.0,69,0.00,,,0.00,0,WeatherCatV1.12B45,2013-01-08 05:10:00,
2013-01-08 00:15:00,36.3,27.1,30.23,East,92,1.0,2.0,69,0.00,,,0.00,0,WeatherCatV1.12B45,2013-01-08 05:15:00,
2013-01-08 00:20:00,36.1,26.9,30.23,ESE,113,0.0,1.0,69,0.00,,,0.00,0,WeatherCatV1.12B45,2013-01-08 05:20:00,
2013-01-08 00:25:00,35.7,26.9,30.23,ESE,113,0.0,2.0,70,0.00,,,0.00,0,WeatherCatV1.12B45,2013-01-08 05:25:00,
2013-01-08 00:30:00,35.6,26.5,30.23,ESE,115,1.0,1.0,69,0.00,,,0.00,0,WeatherCatV1.12B45,2013-01-08 05:30:00,
2013-01-08 00:35:00,35.3,26.2,30.23,SE,146,0.0,1.0,69,0.00,,,0.00,0,WeatherCatV1.12B45,2013-01-08 05:35:00,
2013-01-08 00:40:00,35.3,26.2,30.23,ESE,109,0.0,0.0,69,0.00,,,0.00,0,WeatherCatV1.12B45,2013-01-08 05:40:00,
2013-01-08 00:45:00,35.2,26.1,30.23,ESE,109,0.0,0.0,69,0.00,,,0.00,0,WeatherCatV1.12B45,2013-01-08 05:45:00,
2013-01-08 00:50:00,35.1,26.0,30.23,ESE,109,0.0,0.0,69,0.00,,,0.00,0,WeatherCatV1.12B45,2013-01-08 05:50:00,
2013-01-08 00:55:00,35.1,25.6,30.23,ESE,109,0.0,0.0,68,0.00,,,0.00,0,WeatherCatV1.12B45,2013-01-08 05:55:00,
2013-01-08 01:00:00,35.2,25.7,30.23,ESE,111,1.0,1.0,68,0.00,,,0.00,0,WeatherCatV1.12B45,2013-01-08 06:00:00,
2013-01-08 01:05:00,35.3,25.8,30.23,ESE,103,0.0,4.0,68,0.00,,,0.00,0,WeatherCatV1.12B45,2013-01-08 06:05:00,
2013-01-08 01:10:00,35.6,26.1,30.23,North,0,0.0,2.0,68,0.00,,,0.00,0,WeatherCatV1.12B45,2013-01-08 06:10:00,
2013-01-08 01:15:00,35.8,26.6,30.23,ESE,108,0.0,4.0,69,0.00,,,0.00,0,WeatherCatV1.12B45,2013-01-08 06:15:00,
2013-01-08 01:20:00,35.9,26.7,30.23,ESE,108,0.0,0.0,69,0.00,,,0.00,0,WeatherCatV1.12B45,2013-01-08 06:20:00,
2013-01-08 01:25:00,35.9,27.1,30.23,East,90,2.0,2.0,70,0.00,,,0.00,0,WeatherCatV1.12B45,2013-01-08 06:25:00,
2013-01-08 01:30:00,36.0,27.2,30.23,East,95,1.0,1.0,70,0.00,,,0.00,0,WeatherCatV1.12B45,2013-01-08 06:30:00,
2013-01-08 01:35:00,36.2,27.7,30.23,East,98,0.0,1.0,71,0.00,,,0.00,0,WeatherCatV1.12B45,2013-01-08 06:35:00,
2013-01-08 01:40:00,36.2,27.7,30.23,East,94,0.0,4.0,71,0.00,,,0.00,0,WeatherCatV1.12B45,2013-01-08 06:40:00,
2013-01-08 01:45:00,36.2,27.7,30.23,East,97,0.0,0.0,71,0.00,,,0.00,0,WeatherCatV1.12B45,2013-01-08 06:45:00,
2013-01-08 01:50:00,36.1,27.6,30.23,ESE,105,0.0,4.0,71,0.00,,,0.00,0,WeatherCatV1.12B45,2013-01-08 06:50:00,
2013-01-08 01:55:00,36.2,27.7,30.23,SE,127,0.0,2.0,71,0.00,,,0.00,0,WeatherCatV1.12B45,2013-01-08 06:55:00,
2013-01-08 02:00:00,36.1,27.6,30.23,SSE,154,0.0,0.0,71,0.00,,,0.00,0,WeatherCatV1.12B45,2013-01-08 07:00:00,
2013-01-08 02:05:00,36.1,28.0,30.23,ESE,107,2.0,4.0,72,0.00,,,0.00,0,WeatherCatV1.12B45,2013-01-08 07:05:00,
2013-01-08 02:10:00,36.2,28.1,30.23,NE,36,0.0,1.0,72,0.00,,,0.00,0,WeatherCatV1.12B45,2013-01-08 07:10:00,
2013-01-08 02:15:00,36.2,28.1,30.23,ESE,103,2.0,4.0,72,0.00,,,0.00,0,WeatherCatV1.12B45,2013-01-08 07:15:00,
2013-01-08 02:20:00,36.2,28.1,30.23,ESE,103,5.0,5.0,72,0.00,,,0.00,0,WeatherCatV1.12B45,2013-01-08 07:20:00,
2013-01-08 02:25:00,36.4,28.2,30.23,ESE,115,0.0,4.0,72,0.00,,,0.00,0,WeatherCatV1.12B45,2013-01-08 07:25:00,
2013-01-08 02:30:00,36.3,28.2,30.23,East,91,2.0,4.0,72,0.00,,,0.00,0,WeatherCatV1.12B45,2013-01-08 07:30:00,
2013-01-08 02:35:00,36.3,28.2,30.22,ESE,110,0.0,4.0,72,0.00,,,0.00,0,WeatherCatV1.12B45,2013-01-08 07:35:00,
2013-01-08 02:40:00,36.2,28.4,30.23,East,88,0.0,2.0,73,0.00,,,0.00,0,WeatherCatV1.12B45,2013-01-08 07:40:00,
2013-01-08 02:45:00,35.9,28.4,30.22,East,96,4.0,4.0,74,0.00,,,0.00,0,WeatherCatV1.12B45,2013-01-08 07:45:00,
2013-01-08 02:50:00,35.9,28.4,30.22,ESE,103,4.0,6.0,74,0.00,,,0.00,0,WeatherCatV1.12B45,2013-01-08 07:50:00,
2013-01-08 02:55:00,35.8,28.3,30.22,ESE,107,4.0,5.0,74,0.00,,,0.00,0,WeatherCatV1.12B45,2013-01-08 07:55:00,
2013-01-08 03:00:00,35.7,28.2,30.22,East,80,1.0,6.0,74,0.00,,,0.00,0,WeatherCatV1.12B45,2013-01-08 08:00:00,
2013-01-08 03:05:00,35.6,28.5,30.22,ESE,123,0.0,5.0,75,0.00,,,0.00,0,WeatherCatV1.12B45,2013-01-08 08:05:00,
2013-01-08 03:10:00,35.5,28.4,30.22,ESE,110,2.0,6.0,75,0.00,,,0.00,0,WeatherCatV1.12B45,2013-01-08 08:10:00,
2013-01-08 03:15:00,35.5,28.4,30.22,East,92,4.0,6.0,75,0.00,,,0.00,0,WeatherCatV1.12B45,2013-01-08 08:15:00,
2013-01-08 03:20:00,35.4,28.3,30.21,ESE,107,5.0,6.0,75,0.00,,,0.00,0,WeatherCatV1.12B45,2013-01-08 08:20:00,
2013-01-08 03:25:00,35.3,28.2,30.21,ESE,111,5.0,6.0,75,0.00,,,0.00,0,WeatherCatV1.12B45,2013-01-08 08:25:00,
2013-01-08 03:30:00,35.3,28.5,30.21,East,98,4.0,5.0,76,0.00,,,0.00,0,WeatherCatV1.12B45,2013-01-08 08:30:00,
2013-01-08 03:35:00,35.2,28.7,30.21,East,84,1.0,7.0,77,0.00,,,0.00,0,WeatherCatV1.12B45,2013-01-08 08:35:00,
2013-01-08 03:40:00,35.1,28.9,30.21,ESE,117,4.0,5.0,78,0.00,,,0.00,0,WeatherCatV1.12B45,2013-01-08 08:40:00,
2013-01-08 03:45:00,35.0,29.2,30.21,East,83,3.0,5.0,79,0.00,,,0.00,0,WeatherCatV1.12B45,2013-01-08 08:45:00,
2013-01-08 03:50:00,34.9,29.1,30.21,NNE,26,0.0,4.0,79,0.00,,,0.00,0,WeatherCatV1.12B45,2013-01-08 08:50:00,
2013-01-08 03:55:00,34.8,29.3,30.21,East,92,2.0,5.0,80,0.00,,,0.00,0,WeatherCatV1.12B45,2013-01-08 08:55:00,
2013-01-08 04:00:00,34.8,29.3,30.21,ESE,121,4.0,5.0,80,0.00,,,0.00,0,WeatherCatV1.12B45,2013-01-08 09:00:00,
2013-01-08 04:05:00,34.8,29.3,30.21,East,98,2.0,5.0,80,0.00,,,0.00,0,WeatherCatV1.12B45,2013-01-08 09:05:00,
2013-01-08 04:10:00,34.7,29.2,30.21,East,101,0.0,4.0,80,0.00,,,0.00,0,WeatherCatV1.12B45,2013-01-08 09:10:00,
2013-01-08 04:15:00,34.7,29.5,30.21,East,96,0.0,4.0,81,0.00,,,0.00,0,WeatherCatV1.12B45,2013-01-08 09:15:00,
2013-01-08 04:20:00,34.6,29.4,30.21,ESE,108,0.0,4.0,81,0.00,,,0.00,0,WeatherCatV1.12B45,2013-01-08 09:20:00,
2013-01-08 04:25:00,34.5,29.3,30.20,ESE,103,1.0,1.0,81,0.00,,,0.00,0,WeatherCatV1.12B45,2013-01-08 09:25:00,
2013-01-08 04:30:00,34.4,29.2,30.20,ESE,102,1.0,2.0,81,0.00,,,0.00,0,WeatherCatV1.12B45,2013-01-08 09:30:00,
2013-01-08 04:35:00,34.4,29.2,30.21,East,96,2.0,5.0,81,0.00,,,0.00,0,WeatherCatV1.12B45,2013-01-08 09:35:00,
2013-01-08 04:40:00,34.4,29.5,30.21,ESE,113,0.0,4.0,82,0.00,,,0.00,0,WeatherCatV1.12B45,2013-01-08 09:40:00,
2013-01-08 04:45:00,34.4,29.5,30.21,ESE,118,0.0,4.0,82,0.00,,,0.00,0,WeatherCatV1.12B45,2013-01-08 09:45:00,
2013-01-08 04:50:00,34.4,29.2,30.21,ESE,105,1.0,4.0,81,0.00,,,0.00,0,WeatherCatV1.12B45,2013-01-08 09:50:00,
2013-01-08 04:55:00,34.4,29.5,30.21,ESE,105,1.0,2.0,82,0.00,,,0.00,0,WeatherCatV1.12B45,2013-01-08 09:55:00,
2013-01-08 05:00:00,34.3,29.4,30.21,ESE,111,0.0,2.0,82,0.00,,,0.00,0,WeatherCatV1.12B45,2013-01-08 10:00:00,
2013-01-08 05:05:00,34.1,29.5,30.22,ESE,116,1.0,4.0,83,0.00,,,0.00,0,WeatherCatV1.12B45,2013-01-08 10:05:00,
2013-01-08 05:10:00,34.2,29.3,30.22,ESE,111,2.0,2.0,82,0.00,,,0.00,0,WeatherCatV1.12B45,2013-01-08 10:10:00,
2013-01-08 05:15:00,34.4,29.5,30.22,East,91,2.0,2.0,82,0.00,,,0.00,0,WeatherCatV1.12B45,2013-01-08 10:15:00,
2013-01-08 05:20:00,34.6,29.7,30.22,SE,140,0.0,1.0,82,0.00,,,0.00,0,WeatherCatV1.12B45,2013-01-08 10:20:00,
2013-01-08 05:25:00,34.6,29.4,30.22,WSW,256,0.0,1.0,81,0.00,,,0.00,0,WeatherCatV1.12B45,2013-01-08 10:25:00,
2013-01-08 05:30:00,34.7,29.5,30.22,WSW,256,0.0,2.0,81,0.00,,,0.00,0,WeatherCatV1.12B45,2013-01-08 10:30:00,
2013-01-08 05:35:00,34.7,29.2,30.23,West,267,0.0,2.0,80,0.00,,,0.00,0,WeatherCatV1.12B45,2013-01-08 10:35:00,
2013-01-08 05:40:00,34.8,29.3,30.23,ENE,66,2.0,2.0,80,0.00,,,0.00,0,WeatherCatV1.12B45,2013-01-08 10:40:00,
2013-01-08 05:45:00,34.9,29.1,30.22,West,260,0.0,2.0,79,0.00,,,0.00,0,WeatherCatV1.12B45,2013-01-08 10:45:00,
2013-01-08 05:50:00,35.2,29.4,30.23,ESE,111,0.0,1.0,79,0.00,,,0.00,0,WeatherCatV1.12B45,2013-01-08 10:50:00,
2013-01-08 05:53:00,35.3,29.1,30.22,ENE,68,0.0,1.0,78,0.00,,,0.00,0,WeatherCatV1.12B45,2013-01-08 10:53:00,
2013-01-08 05:58:00,35.3,29.1,30.23,ESE,113,1.0,2.0,78,0.00,,,0.00,0,WeatherCatV1.12B45,2013-01-08 10:58:00,
2013-01-08 06:03:00,35.3,29.1,30.23,ESE,107,1.0,5.0,78,0.00,,,0.00,0,WeatherCatV1.12B45,2013-01-08 11:03:00,
2013-01-08 06:08:00,35.5,29.0,30.23,SE,126,4.0,5.0,77,0.00,,,0.00,0,WeatherCatV1.12B45,2013-01-08 11:08:00,
2013-01-08 06:13:00,35.7,29.2,30.23,ESE,111,1.0,4.0,77,0.00,,,0.00,0,WeatherCatV1.12B45,2013-01-08 11:13:00,
2013-01-08 06:18:00,35.7,29.2,30.23,SE,131,2.0,5.0,77,0.00,,,0.00,0,WeatherCatV1.12B45,2013-01-08 11:18:00,
2013-01-08 06:23:00,35.7,29.2,30.23,ESE,123,4.0,5.0,77,0.00,,,0.00,0,WeatherCatV1.12B45,2013-01-08 11:23:00,
2013-01-08 06:28:00,35.7,29.2,30.23,East,80,2.0,5.0,77,0.00,,,0.00,0,WeatherCatV1.12B45,2013-01-08 11:28:00,
2013-01-08 06:33:00,35.7,29.2,30.23,East,98,0.0,5.0,77,0.00,,,0.00,0,WeatherCatV1.12B45,2013-01-08 11:33:00,
2013-01-08 06:38:00,35.5,29.3,30.23,East,80,0.0,2.0,78,0.00,,,0.00,0,WeatherCatV1.12B45,2013-01-08 11:38:00,
2013-01-08 06:43:00,35.4,29.2,30.24,East,91,0.0,1.0,78,0.00,,,0.00,0,WeatherCatV1.12B45,2013-01-08 11:43:00,
2013-01-08 06:48:00,35.3,29.1,30.24,ESE,112,1.0,5.0,78,0.00,,,0.00,0,WeatherCatV1.12B45,2013-01-08 11:48:00,
2013-01-08 06:53:00,35.2,29.0,30.24,East,89,3.0,4.0,78,0.00,,,0.00,0,WeatherCatV1.12B45,2013-01-08 11:53:00,
2013-01-08 06:58:00,35.3,29.1,30.24,ENE,76,4.0,5.0,78,0.00,,,0.00,0,WeatherCatV1.12B45,2013-01-08 11:58:00,
2013-01-08 07:03:00,35.5,29.3,30.24,East,91,1.0,4.0,78,0.00,,,0.00,0,WeatherCatV1.12B45,2013-01-08 12:03:00,
2013-01-08 07:08:00,35.5,29.3,30.24,East,98,0.0,5.0,78,0.00,,,0.00,0,WeatherCatV1.12B45,2013-01-08 12:08:00,
2013-01-08 07:13:00,35.4,29.5,30.24,East,90,0.0,5.0,79,0.00,,,0.00,0,WeatherCatV1.12B45,2013-01-08 12:13:00,
2013-01-08 07:18:00,35.4,29.5,30.25,ESE,103,1.0,5.0,79,0.00,,,0.00,0,WeatherCatV1.12B45,2013-01-08 12:18:00,
2013-01-08 07:23:00,35.4,29.5,30.25,NNW,335,0.0,2.0,79,0.00,,,0.00,5,WeatherCatV1.12B45,2013-01-08 12:23:00,
2013-01-08 07:28:00,35.1,29.6,30.25,East,90,0.0,0.0,80,0.00,,,0.00,7,WeatherCatV1.12B45,2013-01-08 12:28:00,
2013-01-08 07:33:00,35.1,29.6,30.25,East,93,0.0,1.0,80,0.00,,,0.00,9,WeatherCatV1.12B45,2013-01-08 12:33:00,
2013-01-08 07:38:00,35.2,29.7,30.26,East,86,1.0,4.0,80,0.00,,,0.00,11,WeatherCatV1.12B45,2013-01-08 12:38:00,
2013-01-08 07:43:00,35.2,29.7,30.26,ENE,76,0.0,2.0,80,0.00,,,0.00,12,WeatherCatV1.12B45,2013-01-08 12:43:00,
2013-01-08 07:48:00,35.3,30.1,30.26,East,80,0.0,2.0,81,0.00,,,0.00,14,WeatherCatV1.12B45,2013-01-08 12:48:00,
2013-01-08 07:53:00,35.5,30.0,30.26,East,85,0.0,1.0,80,0.00,,,0.00,16,WeatherCatV1.12B45,2013-01-08 12:53:00,
2013-01-08 07:58:00,35.7,30.1,30.26,East,88,0.0,2.0,80,0.00,,,0.00,18,WeatherCatV1.12B45,2013-01-08 12:58:00,
2013-01-08 08:03:00,35.8,30.2,30.26,NW,307,2.0,3.0,80,0.00,,,0.00,19,WeatherCatV1.12B45,2013-01-08 13:03:00,
2013-01-08 08:08:00,35.9,30.3,30.26,ESE,113,0.0,5.0,80,0.00,,,0.00,21,WeatherCatV1.12B45,2013-01-08 13:08:00,
2013-01-08 08:13:00,36.0,30.4,30.27,East,86,0.0,1.0,80,0.00,,,0.00,23,WeatherCatV1.12B45,2013-01-08 13:13:00,
2013-01-08 08:18:00,36.2,30.6,30.27,East,84,1.0,2.0,80,0.00,,,0.00,25,WeatherCatV1.12B45,2013-01-08 13:18:00,
2013-01-08 08:23:00,36.3,30.7,30.27,ENE,69,1.0,2.0,80,0.00,,,0.00,28,WeatherCatV1.12B45,2013-01-08 13:23:00,
2013-01-08 08:28:00,36.7,30.8,30.27,East,87,1.0,4.0,79,0.00,,,0.00,30,WeatherCatV1.12B45,2013-01-08 13:28:00,
2013-01-08 08:33:00,37.0,31.1,30.27,WNW,290,0.0,5.0,79,0.00,,,0.00,40,WeatherCatV1.12B45,2013-01-08 13:33:00,
2013-01-08 08:38:00,37.4,31.5,30.27,WSW,253,0.0,2.0,79,0.00,,,0.00,47,WeatherCatV1.12B45,2013-01-08 13:38:00,
2013-01-08 08:43:00,37.9,31.7,30.27,West,259,2.0,3.0,78,0.00,,,0.00,84,WeatherCatV1.12B45,2013-01-08 13:43:00,
2013-01-08 08:48:00,38.4,32.2,30.27,West,261,4.0,4.0,78,0.00,,,0.00,51,WeatherCatV1.12B45,2013-01-08 13:48:00,
2013-01-08 08:53:00,38.7,32.1,30.28,West,267,0.0,4.0,77,0.00,,,0.00,111,WeatherCatV1.12B45,2013-01-08 13:53:00,
2013-01-08 08:58:00,39.1,32.5,30.28,WSW,244,5.0,5.0,77,0.00,,,0.00,46,WeatherCatV1.12B45,2013-01-08 13:58:00,
2013-01-08 09:03:00,39.5,32.6,30.28,WSW,238,4.0,7.0,76,0.00,,,0.00,151,WeatherCatV1.12B45,2013-01-08 14:03:00,
2013-01-08 09:08:00,39.6,32.7,30.28,WSW,247,2.0,5.0,76,0.00,,,0.00,44,WeatherCatV1.12B45,2013-01-08 14:08:00,
2013-01-08 09:13:00,39.7,32.4,30.28,NNW,327,3.0,4.0,75,0.00,,,0.00,47,WeatherCatV1.12B45,2013-01-08 14:13:00,
2013-01-08 09:18:00,39.9,32.6,30.27,WSW,258,3.0,4.0,75,0.00,,,0.00,77,WeatherCatV1.12B45,2013-01-08 14:18:00,
2013-01-08 09:23:00,40.2,32.6,30.28,WNW,285,2.0,3.0,74,0.00,,,0.00,109,WeatherCatV1.12B45,2013-01-08 14:23:00,
2013-01-08 09:28:00,40.4,32.4,30.27,SW,229,4.0,5.0,73,0.00,,,0.00,98,WeatherCatV1.12B45,2013-01-08 14:28:00,
2013-01-08 09:33:00,40.5,32.5,30.27,WSW,237,1.0,4.0,73,0.00,,,0.00,47,WeatherCatV1.12B45,2013-01-08 14:33:00,
2013-01-08 09:38:00,41.1,32.4,30.27,WSW,237,3.0,4.0,71,0.00,,,0.00,151,WeatherCatV1.12B45,2013-01-08 14:38:00,
2013-01-08 09:43:00,41.4,32.4,30.27,West,267,3.0,6.0,70,0.00,,,0.00,213,WeatherCatV1.12B45,2013-01-08 14:43:00,
2013-01-08 09:48:00,41.9,31.8,30.27,WSW,239,6.0,6.0,67,0.00,,,0.00,197,WeatherCatV1.12B45,2013-01-08 14:48:00,
2013-01-08 09:53:00,42.3,32.1,30.27,WSW,252,3.0,7.0,67,0.00,,,0.00,274,WeatherCatV1.12B45,2013-01-08 14:53:00,
2013-01-08 09:58:00,42.6,31.7,30.27,WSW,246,6.0,6.0,65,0.00,,,0.00,278,WeatherCatV1.12B45,2013-01-08 14:58:00,
2013-01-08 10:03:00,43.0,32.1,30.27,West,262,3.0,5.0,65,0.00,,,0.00,311,WeatherCatV1.12B45,2013-01-08 15:03:00,
2013-01-08 10:08:00,43.5,32.5,30.27,WNW,284,3.0,4.0,65,0.00,,,0.00,292,WeatherCatV1.12B45,2013-01-08 15:08:00,
2013-01-08 10:13:00,43.8,32.0,30.27,WSW,239,3.0,4.0,63,0.00,,,0.00,283,WeatherCatV1.12B45,2013-01-08 15:13:00,
2013-01-08 10:18:00,44.5,32.7,30.27,WSW,245,4.0,4.0,63,0.00,,,0.00,318,WeatherCatV1.12B45,2013-01-08 15:18:00,
2013-01-08 10:23:00,44.5,31.9,30.27,WSW,238,4.0,7.0,61,0.00,,,0.00,374,WeatherCatV1.12B45,2013-01-08 15:23:00,
2013-01-08 10:28:00,44.5,32.3,30.26,WSW,246,0.0,8.0,62,0.00,,,0.00,381,WeatherCatV1.12B45,2013-01-08 15:28:00,
2013-01-08 10:33:00,44.6,32.4,30.26,WSW,248,5.0,6.0,62,0.00,,,0.00,387,WeatherCatV1.12B45,2013-01-08 15:33:00,
2013-01-08 10:38:00,44.4,31.8,30.26,WNW,283,3.0,9.0,61,0.00,,,0.00,397,WeatherCatV1.12B45,2013-01-08 15:38:00,
2013-01-08 10:43:00,44.4,31.8,30.26,West,259,6.0,9.0,61,0.00,,,0.00,403,WeatherCatV1.12B45,2013-01-08 15:43:00,
2013-01-08 10:48:00,44.4,31.4,30.26,WSW,245,9.0,9.0,60,0.00,,,0.00,410,WeatherCatV1.12B45,2013-01-08 15:48:00,
2013-01-08 10:53:00,44.4,31.4,30.26,West,279,4.0,8.0,60,0.00,,,0.00,413,WeatherCatV1.12B45,2013-01-08 15:53:00,
2013-01-08 10:58:00,45.0,32.0,30.25,West,267,2.0,5.0,60,0.00,,,0.00,420,WeatherCatV1.12B45,2013-01-08 15:58:00,
2013-01-08 11:03:00,45.1,32.1,30.25,West,262,6.0,9.0,60,0.00,,,0.00,424,WeatherCatV1.12B45,2013-01-08 16:03:00,
2013-01-08 11:08:00,45.4,32.3,30.25,West,263,3.0,5.0,60,0.00,,,0.00,432,WeatherCatV1.12B45,2013-01-08 16:08:00,
2013-01-08 11:13:00,45.5,32.0,30.24,WSW,246,4.0,9.0,59,0.00,,,0.00,404,WeatherCatV1.12B45,2013-01-08 16:13:00,
2013-01-08 11:18:00,45.0,32.0,30.24,WNW,284,6.0,9.0,60,0.00,,,0.00,56,WeatherCatV1.12B45,2013-01-08 16:18:00,
2013-01-08 11:23:00,44.6,31.6,30.23,West,261,7.0,8.0,60,0.00,,,0.00,58,WeatherCatV1.12B45,2013-01-08 16:23:00,
2013-01-08 11:28:00,45.0,32.0,30.23,WSW,249,2.0,8.0,60,0.00,,,0.00,60,WeatherCatV1.12B45,2013-01-08 16:28:00,
2013-01-08 11:33:00,44.9,31.9,30.23,WSW,256,5.0,7.0,60,0.00,,,0.00,65,WeatherCatV1.12B45,2013-01-08 16:33:00,
2013-01-08 11:38:00,45.3,32.7,30.22,East,95,4.0,9.0,61,0.00,,,0.00,74,WeatherCatV1.12B45,2013-01-08 16:38:00,
2013-01-08 11:43:00,45.8,32.3,30.22,West,263,0.0,5.0,59,0.00,,,0.00,62,WeatherCatV1.12B45,2013-01-08 16:43:00,
2013-01-08 11:48:00,46.1,33.0,30.21,WSW,243,3.0,8.0,60,0.00,,,0.00,62,WeatherCatV1.12B45,2013-01-08 16:48:00,
2013-01-08 11:53:00,46.0,32.5,30.21,SE,134,1.0,4.0,59,0.00,,,0.00,63,WeatherCatV1.12B45,2013-01-08 16:53:00,
2013-01-08 11:58:00,46.2,32.7,30.21,WSW,255,7.0,7.0,59,0.00,,,0.00,60,WeatherCatV1.12B45,2013-01-08 16:58:00,
2013-01-08 12:03:00,46.2,32.7,30.20,West,270,3.0,7.0,59,0.00,,,0.00,62,WeatherCatV1.12B45,2013-01-08 17:03:00,
2013-01-08 12:08:00,45.8,32.3,30.20,WSW,250,5.0,8.0,59,0.00,,,0.00,62,WeatherCatV1.12B45,2013-01-08 17:08:00,
2013-01-08 12:13:00,45.8,32.7,30.20,WSW,254,7.0,9.0,60,0.00,,,0.00,74,WeatherCatV1.12B45,2013-01-08 17:13:00,
2013-01-08 12:18:00,46.2,33.1,30.20,WSW,246,5.0,5.0,60,0.00,,,0.00,79,WeatherCatV1.12B45,2013-01-08 17:18:00,
2013-01-08 12:23:00,46.3,32.8,30.20,WSW,253,5.0,6.0,59,0.00,,,0.00,88,WeatherCatV1.12B45,2013-01-08 17:23:00,
2013-01-08 12:28:00,46.3,33.2,30.20,West,274,5.0,5.0,60,0.00,,,0.00,74,WeatherCatV1.12B45,2013-01-08 17:28:00,
2013-01-08 12:33:00,46.2,32.7,30.20,WNW,284,5.0,6.0,59,0.00,,,0.00,70,WeatherCatV1.12B45,2013-01-08 17:33:00,
2013-01-08 12:38:00,46.3,32.8,30.20,SW,225,4.0,6.0,59,0.00,,,0.00,69,WeatherCatV1.12B45,2013-01-08 17:38:00,
2013-01-08 12:43:00,46.5,33.0,30.20,WSW,252,4.0,9.0,59,0.00,,,0.00,65,WeatherCatV1.12B45,2013-01-08 17:43:00,
2013-01-08 12:48:00,46.8,34.1,30.20,ENE,59,1.0,6.0,61,0.00,,,0.00,63,WeatherCatV1.12B45,2013-01-08 17:48:00,
2013-01-08 12:53:00,47.0,33.4,30.20,NNW,344,3.0,12.0,59,0.00,,,0.00,63,WeatherCatV1.12B45,2013-01-08 17:53:00,
2013-01-08 12:58:00,47.0,33.4,30.20,NW,307,1.0,6.0,59,0.00,,,0.00,60,WeatherCatV1.12B45,2013-01-08 17:58:00,
2013-01-08 13:03:00,46.9,33.3,30.20,West,262,3.0,7.0,59,0.00,,,0.00,63,WeatherCatV1.12B45,2013-01-08 18:03:00,
2013-01-08 13:08:00,46.8,33.2,30.19,WSW,237,6.0,6.0,59,0.00,,,0.00,67,WeatherCatV1.12B45,2013-01-08 18:08:00,
2013-01-08 13:13:00,46.7,33.1,30.19,ESE,107,5.0,7.0,59,0.00,,,0.00,63,WeatherCatV1.12B45,2013-01-08 18:13:00,
2013-01-08 13:18:00,46.9,33.3,30.19,SSW,198,3.0,6.0,59,0.00,,,0.00,60,WeatherCatV1.12B45,2013-01-08 18:18:00,
2013-01-08 13:23:00,46.9,33.3,30.19,West,269,2.0,9.0,59,0.00,,,0.00,58,WeatherCatV1.12B45,2013-01-08 18:23:00,
2013-01-08 13:28:00,47.0,33.4,30.19,West,273,3.0,5.0,59,0.00,,,0.00,54,WeatherCatV1.12B45,2013-01-08 18:28:00,
2013-01-08 13:33:00,46.9,33.3,30.19,West,263,2.0,5.0,59,0.00,,,0.00,53,WeatherCatV1.12B45,2013-01-08 18:33:00,
2013-01-08 13:38:00,47.1,33.9,30.18,NW,306,1.0,2.0,60,0.00,,,0.00,53,WeatherCatV1.12B45,2013-01-08 18:38:00,
2013-01-08 13:43:00,47.3,33.7,30.19,WSW,256,4.0,4.0,59,0.00,,,0.00,53,WeatherCatV1.12B45,2013-01-08 18:43:00,
2013-01-08 13:48:00,47.2,33.6,30.19,West,275,6.0,6.0,59,0.00,,,0.00,53,WeatherCatV1.12B45,2013-01-08 18:48:00,
2013-01-08 13:53:00,47.2,33.6,30.19,WSW,238,4.0,7.0,59,0.00,,,0.00,53,WeatherCatV1.12B45,2013-01-08 18:53:00,
2013-01-08 13:58:00,47.5,33.9,30.19,SW,232,3.0,6.0,59,0.00,,,0.00,49,WeatherCatV1.12B45,2013-01-08 18:58:00,
2013-01-08 14:03:00,47.4,33.8,30.19,WSW,247,3.0,6.0,59,0.00,,,0.00,49,WeatherCatV1.12B45,2013-01-08 19:03:00,
2013-01-08 14:08:00,47.4,33.8,30.19,WNW,294,4.0,6.0,59,0.00,,,0.00,49,WeatherCatV1.12B45,2013-01-08 19:08:00,
2013-01-08 14:13:00,47.6,33.6,30.19,NW,321,0.0,8.0,58,0.00,,,0.00,49,WeatherCatV1.12B45,2013-01-08 19:13:00,
2013-01-08 14:18:00,47.5,33.5,30.19,West,275,4.0,8.0,58,0.00,,,0.00,44,WeatherCatV1.12B45,2013-01-08 19:18:00,
2013-01-08 14:23:00,47.5,33.5,30.20,West,264,1.0,3.0,58,0.00,,,0.00,42,WeatherCatV1.12B45,2013-01-08 19:23:00,
2013-01-08 14:28:00,47.6,33.1,30.20,SW,235,3.0,6.0,57,0.00,,,0.00,42,WeatherCatV1.12B45,2013-01-08 19:28:00,
2013-01-08 14:33:00,47.5,33.0,30.20,WSW,242,5.0,6.0,57,0.00,,,0.00,42,WeatherCatV1.12B45,2013-01-08 19:33:00,
2013-01-08 14:38:00,47.3,33.3,30.20,West,273,3.0,4.0,58,0.00,,,0.00,42,WeatherCatV1.12B45,2013-01-08 19:38:00,
2013-01-08 14:43:00,47.3,33.7,30.20,West,267,2.0,7.0,59,0.00,,,0.00,40,WeatherCatV1.12B45,2013-01-08 19:43:00,
2013-01-08 14:48:00,47.4,33.4,30.20,ESE,107,0.0,6.0,58,0.00,,,0.00,39,WeatherCatV1.12B45,2013-01-08 19:48:00,
2013-01-08 14:53:00,47.4,33.4,30.20,West,265,2.0,5.0,58,0.00,,,0.00,39,WeatherCatV1.12B45,2013-01-08 19:53:00,
2013-01-08 14:58:00,47.3,33.3,30.20,WSW,248,0.0,6.0,58,0.00,,,0.00,39,WeatherCatV1.12B45,2013-01-08 19:58:00,
2013-01-08 15:03:00,47.2,33.6,30.19,West,262,2.0,3.0,59,0.00,,,0.00,54,WeatherCatV1.12B45,2013-01-08 20:03:00,
2013-01-08 15:08:00,47.3,33.3,30.19,West,281,2.0,5.0,58,0.00,,,0.00,40,WeatherCatV1.12B45,2013-01-08 20:08:00,
2013-01-08 15:13:00,47.5,33.5,30.20,WNW,287,0.0,3.0,58,0.00,,,0.00,40,WeatherCatV1.12B45,2013-01-08 20:13:00,
2013-01-08 15:18:00,47.6,33.1,30.19,WSW,254,5.0,7.0,57,0.00,,,0.00,39,WeatherCatV1.12B45,2013-01-08 20:18:00,
2013-01-08 15:23:00,47.3,33.3,30.19,WSW,254,5.0,5.0,58,0.00,,,0.00,42,WeatherCatV1.12B45,2013-01-08 20:23:00,
2013-01-08 15:28:00,47.1,33.1,30.19,WSW,246,1.0,4.0,58,0.00,,,0.00,32,WeatherCatV1.12B45,2013-01-08 20:28:00,
2013-01-08 15:33:00,46.7,32.7,30.19,WSW,254,1.0,4.0,58,0.00,,,0.00,35,WeatherCatV1.12B45,2013-01-08 20:33:00,
2013-01-08 15:38:00,46.7,32.7,30.19,WSW,257,1.0,2.0,58,0.00,,,0.00,32,WeatherCatV1.12B45,2013-01-08 20:38:00,
2013-01-08 15:43:00,46.7,33.1,30.19,WSW,245,3.0,4.0,59,0.00,,,0.00,32,WeatherCatV1.12B45,2013-01-08 20:43:00,
2013-01-08 15:48:00,46.7,32.7,30.19,SW,230,0.0,2.0,58,0.00,,,0.00,25,WeatherCatV1.12B45,2013-01-08 20:48:00,
2013-01-08 15:53:00,46.6,33.0,30.19,WSW,243,0.0,5.0,59,0.00,,,0.00,23,WeatherCatV1.12B45,2013-01-08 20:53:00,
2013-01-08 15:58:00,46.6,33.0,30.19,ENE,69,0.0,2.0,59,0.00,,,0.00,32,WeatherCatV1.12B45,2013-01-08 20:58:00,
2013-01-08 16:03:00,46.4,32.9,30.19,West,265,1.0,4.0,59,0.00,,,0.00,21,WeatherCatV1.12B45,2013-01-08 21:03:00,
2013-01-08 16:08:00,46.3,33.2,30.19,ESE,113,2.0,4.0,60,0.00,,,0.00,21,WeatherCatV1.12B45,2013-01-08 21:08:00,
2013-01-08 16:13:00,46.4,33.3,30.19,WSW,239,1.0,3.0,60,0.00,,,0.00,18,WeatherCatV1.12B45,2013-01-08 21:13:00,
2013-01-08 16:18:00,46.4,33.7,30.19,East,86,1.0,5.0,61,0.00,,,0.00,16,WeatherCatV1.12B45,2013-01-08 21:18:00,
2013-01-08 16:23:00,46.2,33.5,30.19,NE,53,1.0,4.0,61,0.00,,,0.00,12,WeatherCatV1.12B45,2013-01-08 21:23:00,
2013-01-08 16:28:00,46.0,33.7,30.19,SE,137,1.0,7.0,62,0.00,,,0.00,11,WeatherCatV1.12B45,2013-01-08 21:28:00,
2013-01-08 16:33:00,45.8,33.5,30.19,ENE,76,0.0,1.0,62,0.00,,,0.00,9,WeatherCatV1.12B45,2013-01-08 21:33:00,
2013-01-08 16:38:00,45.7,33.4,30.19,WSW,250,2.0,8.0,62,0.00,,,0.00,7,WeatherCatV1.12B45,2013-01-08 21:38:00,
2013-01-08 16:43:00,45.5,33.6,30.19,East,80,0.0,3.0,63,0.00,,,0.00,0,WeatherCatV1.12B45,2013-01-08 21:43:00,
2013-01-08 16:48:00,45.2,33.8,30.19,East,90,0.0,2.0,64,0.00,,,0.00,0,WeatherCatV1.12B45,2013-01-08 21:48:00,
2013-01-08 16:53:00,45.2,33.8,30.19,ESE,105,0.0,5.0,64,0.00,,,0.00,0,WeatherCatV1.12B45,2013-01-08 21:53:00,
2013-01-08 16:58:00,45.0,33.6,30.19,ENE,61,1.0,2.0,64,0.00,,,0.00,0,WeatherCatV1.12B45,2013-01-08 21:58:00,
2013-01-08 17:03:00,45.0,34.0,30.19,ESE,105,5.0,8.0,65,0.00,,,0.00,0,WeatherCatV1.12B45,2013-01-08 22:03:00,
2013-01-08 17:08:00,44.9,33.9,30.19,ESE,110,4.0,9.0,65,0.00,,,0.00,0,WeatherCatV1.12B45,2013-01-08 22:08:00,
2013-01-08 17:13:00,44.7,33.7,30.19,NNW,348,0.0,1.0,65,0.00,,,0.00,0,WeatherCatV1.12B45,2013-01-08 22:13:00,
2013-01-08 17:18:00,44.4,33.4,30.19,WSW,246,0.0,2.0,65,0.00,,,0.00,0,WeatherCatV1.12B45,2013-01-08 22:18:00,
2013-01-08 17:23:00,44.3,33.7,30.20,East,96,1.0,3.0,66,0.00,,,0.00,0,WeatherCatV1.12B45,2013-01-08 22:23:00,
2013-01-08 17:28:00,44.2,33.6,30.20,ESE,104,0.0,1.0,66,0.00,,,0.00,0,WeatherCatV1.12B45,2013-01-08 22:28:00,
2013-01-08 17:33:00,44.1,33.5,30.20,NNE,30,0.0,0.0,66,0.00,,,0.00,0,WeatherCatV1.12B45,2013-01-08 22:33:00,
2013-01-08 17:38:00,44.0,33.8,30.20,ENE,72,0.0,2.0,67,0.00,,,0.00,0,WeatherCatV1.12B45,2013-01-08 22:38:00,
2013-01-08 17:43:00,43.9,33.7,30.20,SE,127,1.0,2.0,67,0.00,,,0.00,0,WeatherCatV1.12B45,2013-01-08 22:43:00,
2013-01-08 17:48:00,43.9,34.0,30.20,ESE,107,0.0,2.0,68,0.00,,,0.00,0,WeatherCatV1.12B45,2013-01-08 22:48:00,
2013-01-08 17:53:00,44.0,34.1,30.20,ESE,109,1.0,2.0,68,0.00,,,0.00,0,WeatherCatV1.12B45,2013-01-08 22:53:00,
2013-01-08 17:58:00,43.9,34.0,30.20,ESE,106,0.0,0.0,68,0.00,,,0.00,0,WeatherCatV1.12B45,2013-01-08 22:58:00,
2013-01-08 18:03:00,43.7,34.2,30.21,East,97,1.0,2.0,69,0.00,,,0.00,0,WeatherCatV1.12B45,2013-01-08 23:03:00,
2013-01-08 18:08:00,43.8,33.9,30.20,ESE,113,0.0,4.0,68,0.00,,,0.00,0,WeatherCatV1.12B45,2013-01-08 23:08:00,
2013-01-08 18:13:00,43.9,34.0,30.20,East,99,4.0,5.0,68,0.00,,,0.00,0,WeatherCatV1.12B45,2013-01-08 23:13:00,
2013-01-08 18:18:00,43.9,34.0,30.21,ENE,71,1.0,6.0,68,0.00,,,0.00,0,WeatherCatV1.12B45,2013-01-08 23:18:00,
2013-01-08 18:23:00,43.9,34.0,30.20,East,101,0.0,4.0,68,0.00,,,0.00,0,WeatherCatV1.12B45,2013-01-08 23:23:00,
2013-01-08 18:28:00,43.8,34.3,30.21,ESE,107,1.0,5.0,69,0.00,,,0.00,0,WeatherCatV1.12B45,2013-01-08 23:28:00,
2013-01-08 18:33:00,43.8,34.3,30.21,WSW,242,0.0,2.0,69,0.00,,,0.00,0,WeatherCatV1.12B45,2013-01-08 23:33:00,
2013-01-08 18:38:00,43.6,34.5,30.21,ESE,109,0.0,2.0,70,0.00,,,0.00,0,WeatherCatV1.12B45,2013-01-08 23:38:00,
2013-01-08 18:43:00,43.5,34.4,30.22,SSW,205,0.0,1.0,70,0.00,,,0.00,0,WeatherCatV1.12B45,2013-01-08 23:43:00,
2013-01-08 18:48:00,43.3,34.2,30.22,ESE,108,0.0,4.0,70,0.00,,,0.00,0,WeatherCatV1.12B45,2013-01-08 23:48:00,
2013-01-08 18:53:00,43.3,34.2,30.21,East,101,2.0,4.0,70,0.00,,,0.00,0,WeatherCatV1.12B45,2013-01-08 23:53:00,
2013-01-08 18:58:00,43.2,34.4,30.22,NE,34,0.0,0.0,71,0.00,,,0.00,0,WeatherCatV1.12B45,2013-01-08 23:58:00,
2013-01-08 19:03:00,43.0,34.3,30.22,East,98,0.0,0.0,71,0.00,,,0.00,0,WeatherCatV1.12B45,2013-01-09 00:03:00,
2013-01-08 19:08:00,42.9,34.2,30.22,ESE,107,0.0,4.0,71,0.00,,,0.00,0,WeatherCatV1.12B45,2013-01-09 00:08:00,
2013-01-08 19:13:00,43.1,34.3,30.22,East,87,1.0,2.0,71,0.00,,,0.00,0,WeatherCatV1.12B45,2013-01-09 00:13:00,
2013-01-08 19:18:00,43.2,34.1,30.22,East,98,1.0,4.0,70,0.00,,,0.00,0,WeatherCatV1.12B45,2013-01-09 00:18:00,
2013-01-08 19:23:00,43.2,34.1,30.22,East,97,0.0,1.0,70,0.00,,,0.00,0,WeatherCatV1.12B45,2013-01-09 00:23:00,
2013-01-08 19:28:00,43.0,34.3,30.22,ESE,109,0.0,2.0,71,0.00,,,0.00,0,WeatherCatV1.12B45,2013-01-09 00:28:00,
2013-01-08 19:33:00,43.1,34.3,30.22,East,101,0.0,1.0,71,0.00,,,0.00,0,WeatherCatV1.12B45,2013-01-09 00:33:00,
2013-01-08 19:38:00,42.9,34.2,30.22,SE,133,1.0,2.0,71,0.00,,,0.00,0,WeatherCatV1.12B45,2013-01-09 00:38:00,
2013-01-08 19:43:00,43.1,34.3,30.22,ESE,104,2.0,4.0,71,0.00,,,0.00,0,WeatherCatV1.12B45,2013-01-09 00:43:00,
2013-01-08 19:48:00,43.0,34.3,30.22,ESE,105,0.0,0.0,71,0.00,,,0.00,0,WeatherCatV1.12B45,2013-01-09 00:48:00,
2013-01-08 19:54:00,42.7,34.0,30.22,WSW,238,2.0,2.0,71,0.00,,,0.00,0,WeatherCatV1.12B45,2013-01-09 00:54:00,
2013-01-08 19:59:00,42.7,34.0,30.22,East,95,0.0,2.0,71,0.00,,,0.00,0,WeatherCatV1.12B45,2013-01-09 00:59:00,
2013-01-08 20:04:00,42.7,34.0,30.22,ESE,104,1.0,2.0,71,0.00,,,0.00,0,WeatherCatV1.12B45,2013-01-09 01:04:00,
2013-01-08 20:09:00,43.0,33.9,30.22,ESE,118,2.0,4.0,70,0.00,,,0.00,0,WeatherCatV1.12B45,2013-01-09 01:09:00,
2013-01-08 20:14:00,43.1,34.0,30.22,East,96,0.0,4.0,70,0.00,,,0.00,0,WeatherCatV1.12B45,2013-01-09 01:14:00,
2013-01-08 20:19:00,43.2,34.1,30.22,East,99,4.0,4.0,70,0.00,,,0.00,0,WeatherCatV1.12B45,2013-01-09 01:19:00,
2013-01-08 20:24:00,43.2,34.1,30.23,SE,140,0.0,4.0,70,0.00,,,0.00,0,WeatherCatV1.12B45,2013-01-09 01:24:00,
2013-01-08 20:29:00,43.1,34.0,30.23,East,94,2.0,2.0,70,0.00,,,0.00,0,WeatherCatV1.12B45,2013-01-09 01:29:00,
2013-01-08 20:34:00,42.9,33.8,30.22,ESE,111,0.0,0.0,70,0.00,,,0.00,0,WeatherCatV1.12B45,2013-01-09 01:34:00,
2013-01-08 20:39:00,42.9,33.8,30.22,ESE,107,0.0,4.0,70,0.00,,,0.00,0,WeatherCatV1.12B45,2013-01-09 01:39:00,
2013-01-08 20:44:00,42.8,33.7,30.23,ESE,106,1.0,1.0,70,0.00,,,0.00,0,WeatherCatV1.12B45,2013-01-09 01:44:00,
2013-01-08 20:49:00,42.6,33.9,30.23,ESE,115,5.0,5.0,71,0.00,,,0.00,0,WeatherCatV1.12B45,2013-01-09 01:49:00,
2013-01-08 20:54:00,42.7,33.6,30.24,ESE,107,1.0,2.0,70,0.00,,,0.00,0,WeatherCatV1.12B45,2013-01-09 01:54:00,
2013-01-08 20:59:00,42.8,33.3,30.22,East,101,2.0,5.0,69,0.00,,,0.00,0,WeatherCatV1.12B45,2013-01-09 01:59:00,
2013-01-08 21:04:00,42.8,33.3,30.22,ESE,108,1.0,6.0,69,0.00,,,0.00,0,WeatherCatV1.12B45,2013-01-09 02:04:00,
2013-01-08 21:09:00,42.8,33.3,30.22,SSE,155,1.0,1.0,69,0.00,,,0.00,0,WeatherCatV1.12B45,2013-01-09 02:09:00,
2013-01-08 21:14:00,42.6,33.2,30.22,ESE,115,4.0,4.0,69,0.00,,,0.00,0,WeatherCatV1.12B45,2013-01-09 02:14:00,
2013-01-08 21:19:00,42.5,33.4,30.22,ESE,121,0.0,0.0,70,0.00,,,0.00,0,WeatherCatV1.12B45,2013-01-09 02:19:00,
2013-01-08 21:24:00,42.3,33.2,30.22,ESE,121,2.0,2.0,70,0.00,,,0.00,0,WeatherCatV1.12B45,2013-01-09 02:24:00,
2013-01-08 21:29:00,42.4,33.0,30.21,ESE,111,1.0,4.0,69,0.00,,,0.00,0,WeatherCatV1.12B45,2013-01-09 02:29:00,
2013-01-08 21:34:00,42.7,33.2,30.22,East,96,0.0,1.0,69,0.00,,,0.00,0,WeatherCatV1.12B45,2013-01-09 02:34:00,
2013-01-08 21:39:00,42.3,33.2,30.22,East,96,0.0,0.0,70,0.00,,,0.00,0,WeatherCatV1.12B45,2013-01-09 02:39:00,
2013-01-08 21:44:00,42.2,33.1,30.22,East,96,0.0,0.0,70,0.00,,,0.00,0,WeatherCatV1.12B45,2013-01-09 02:44:00,
2013-01-08 21:49:00,42.2,33.1,30.23,East,96,0.0,0.0,70,0.00,,,0.00,0,WeatherCatV1.12B45,2013-01-09 02:49:00,
2013-01-08 21:54:00,41.6,32.9,30.22,East,96,0.0,0.0,71,0.00,,,0.00,0,WeatherCatV1.12B45,2013-01-09 02:54:00,
2013-01-08 21:59:00,41.3,33.0,30.22,East,96,0.0,0.0,72,0.00,,,0.00,0,WeatherCatV1.12B45,2013-01-09 02:59:00,
2013-01-08 22:04:00,41.1,32.8,30.23,East,96,0.0,0.0,72,0.00,,,0.00,0,WeatherCatV1.12B45,2013-01-09 03:04:00,
2013-01-08 22:09:00,41.1,33.1,30.23,East,96,0.0,0.0,73,0.00,,,0.00,0,WeatherCatV1.12B45,2013-01-09 03:09:00,
2013-01-08 22:14:00,40.9,32.9,30.22,East,96,0.0,0.0,73,0.00,,,0.00,0,WeatherCatV1.12B45,2013-01-09 03:14:00,
2013-01-08 22:19:00,40.7,32.7,30.23,East,96,0.0,0.0,73,0.00,,,0.00,0,WeatherCatV1.12B45,2013-01-09 03:19:00,
2013-01-08 22:24:00,40.6,32.6,30.23,East,96,0.0,0.0,73,0.00,,,0.00,0,WeatherCatV1.12B45,2013-01-09 03:24:00,
2013-01-08 22:29:00,40.4,32.8,30.22,East,96,0.0,0.0,74,0.00,,,0.00,0,WeatherCatV1.12B45,2013-01-09 03:29:00,
2013-01-08 22:34:00,39.7,32.4,30.23,East,96,0.0,0.0,75,0.00,,,0.00,0,WeatherCatV1.12B45,2013-01-09 03:34:00,
2013-01-08 22:39:00,39.6,32.3,30.23,East,96,0.0,0.0,75,0.00,,,0.00,0,WeatherCatV1.12B45,2013-01-09 03:39:00,
2013-01-08 22:44:00,39.4,32.5,30.23,East,96,0.0,0.0,76,0.00,,,0.00,0,WeatherCatV1.12B45,2013-01-09 03:44:00,
2013-01-08 22:49:00,39.9,32.6,30.23,East,96,0.0,0.0,75,0.00,,,0.00,0,WeatherCatV1.12B45,2013-01-09 03:49:00,
2013-01-08 22:54:00,40.4,32.8,30.24,East,96,0.0,0.0,74,0.00,,,0.00,0,WeatherCatV1.12B45,2013-01-09 03:54:00,
2013-01-08 22:59:00,40.1,32.5,30.24,East,96,0.0,0.0,74,0.00,,,0.00,0,WeatherCatV1.12B45,2013-01-09 03:59:00,
2013-01-08 23:04:00,39.8,32.5,30.24,East,96,0.0,0.0,75,0.00,,,0.00,0,WeatherCatV1.12B45,2013-01-09 04:04:00,
2013-01-08 23:09:00,40.3,32.7,30.24,East,98,1.0,4.0,74,0.00,,,0.00,0,WeatherCatV1.12B45,2013-01-09 04:09:00,
2013-01-08 23:14:00,40.5,32.9,30.24,East,101,0.0,0.0,74,0.00,,,0.00,0,WeatherCatV1.12B45,2013-01-09 04:14:00,
2013-01-08 23:19:00,40.0,32.4,30.24,East,101,0.0,0.0,74,0.00,,,0.00,0,WeatherCatV1.12B45,2013-01-09 04:19:00,
2013-01-08 23:24:00,38.5,31.6,30.24,ESE,103,0.0,0.0,76,0.00,,,0.00,0,WeatherCatV1.12B45,2013-01-09 04:24:00,
2013-01-08 23:29:00,37.9,31.7,30.24,ESE,103,0.0,0.0,78,0.00,,,0.00,0,WeatherCatV1.12B45,2013-01-09 04:29:00,
2013-01-08 23:34:00,37.5,31.6,30.24,ESE,103,0.0,0.0,79,0.00,,,0.00,0,WeatherCatV1.12B45,2013-01-09 04:34:00,
2013-01-08 23:39:00,36.8,31.5,30.24,ESE,103,0.0,0.0,81,0.00,,,0.00,0,WeatherCatV1.12B45,2013-01-09 04:39:00,
2013-01-08 23:44:00,37.3,31.7,30.23,ESE,103,0.0,0.0,80,0.00,,,0.00,0,WeatherCatV1.12B45,2013-01-09 04:44:00,
2013-01-08 23:49:00,36.5,31.2,30.23,ESE,103,0.0,0.0,81,0.00,,,0.00,0,WeatherCatV1.12B45,2013-01-09 04:49:00,
2013-01-08 23:54:00,36.7,31.4,30.23,ESE,103,0.0,0.0,81,0.00,,,0.00,0,WeatherCatV1.12B45,2013-01-09 04:54:00,
2013-01-08 23:59:00,36.9,31.6,30.22,ESE,103,0.0,0.0,81,0.00,,,0.00,0,WeatherCatV1.12B45,2013-01-09 04:59:00,